VIR200 EGLL-VHHX

Flight info

Callsign VIR200
Flight time N/A
Altitude 33000
Route DET1J DET L6 DVR UL9 KONAN DCT KOK DCT REMBA DCT MATUG DCT BOMBI DCT DETEV DCT DINKU/N0471F350 DCT AKIMA DCT TEGRI DCT LUGEB DCT UDROS DCT CRM DCT ROLIN N644 ODILI DCT BARAD M747 SUBUT T916 KONUL/N0468F370 T916 BALUN/K0863F370 T916 KUNAS N193 SR L163 TISIB L141 KAMUD/K0854S1130 W186 SADAN Y1 LUSMA/K0852S1190 Y1 OMBON W245 OVRAL B330 KWE W181 DUDIT A599 POU TAMOT31
Aircraft A346/H-SDE2E3FGHIJ3J4J5M1RWXY/LB1D1

Departure

Time N/A
Airport London Heathrow Airport (EGLL)

Arrival

Time 2026-05-06 12:39
Airport Hong Kong International Airport Kai Tak (VHHX)
Time Latitude Longitude Altitude Speed Heading
2026-05-06 12:09 23.07715 112.45475 39042 ft 505 kts 101°
2026-05-06 12:09 23.07106 112.49265 39045 ft 505 kts 98°
2026-05-06 12:09 23.06435 112.56880 39044 ft 505 kts 94°
2026-05-06 12:10 23.05948 112.64450 39043 ft 505 kts 93°
2026-05-06 12:10 23.05446 112.72072 39047 ft 505 kts 94°
2026-05-06 12:11 23.04930 112.79682 39027 ft 499 kts 94°
2026-05-06 12:11 23.04673 112.83418 38807 ft 492 kts 94°
2026-05-06 12:11 23.04418 112.87123 38290 ft 490 kts 94°
2026-05-06 12:12 23.04163 112.90819 37591 ft 492 kts 94°
2026-05-06 12:12 23.03905 112.94539 36909 ft 494 kts 94°
2026-05-06 12:12 23.03645 112.98276 36253 ft 496 kts 94°
2026-05-06 12:12 23.03383 113.02019 35629 ft 497 kts 94°
2026-05-06 12:13 23.03120 113.05767 35014 ft 498 kts 94°
2026-05-06 12:13 23.02859 113.09479 34413 ft 499 kts 94°
2026-05-06 12:13 23.02459 113.13234 33762 ft 500 kts 101°
2026-05-06 12:13 23.01498 113.16875 33107 ft 499 kts 112°
2026-05-06 12:14 22.99987 113.20256 32466 ft 498 kts 122°
2026-05-06 12:14 22.97971 113.23301 31775 ft 497 kts 132°
2026-05-06 12:14 22.95545 113.25989 31079 ft 497 kts 138°
2026-05-06 12:14 22.93018 113.28556 30372 ft 498 kts 139°
2026-05-06 12:15 22.90465 113.31116 29586 ft 501 kts 139°
2026-05-06 12:15 22.87907 113.33692 28952 ft 498 kts 138°
2026-05-06 12:15 22.85396 113.36237 28514 ft 491 kts 138°
2026-05-06 12:15 22.82913 113.38765 28017 ft 486 kts 138°
2026-05-06 12:16 22.80492 113.41235 27515 ft 482 kts 139°
2026-05-06 12:16 22.78058 113.43722 27012 ft 478 kts 139°
2026-05-06 12:16 22.75652 113.46181 26539 ft 473 kts 139°
2026-05-06 12:16 22.73269 113.48615 26074 ft 468 kts 139°
2026-05-06 12:17 22.70927 113.51043 25594 ft 464 kts 138°
2026-05-06 12:17 22.68634 113.53493 25129 ft 460 kts 138°
2026-05-06 12:17 22.66369 113.55929 24660 ft 456 kts 138°
2026-05-06 12:17 22.64117 113.58345 24206 ft 452 kts 138°
2026-05-06 12:18 22.61886 113.60731 23757 ft 449 kts 139°
2026-05-06 12:18 22.59668 113.63096 23263 ft 445 kts 139°
2026-05-06 12:18 22.57463 113.65441 22740 ft 441 kts 139°
2026-05-06 12:18 22.55304 113.67733 22231 ft 438 kts 139°
2026-05-06 12:19 22.53139 113.70030 21713 ft 434 kts 139°
2026-05-06 12:19 22.50990 113.72310 21209 ft 430 kts 139°
2026-05-06 12:19 22.48858 113.74570 20728 ft 427 kts 138°
2026-05-06 12:19 22.46744 113.76811 20219 ft 424 kts 138°
2026-05-06 12:20 22.45352 113.78286 19893 ft 422 kts 138°
2026-05-06 12:20 22.43261 113.80499 19417 ft 419 kts 138°
2026-05-06 12:20 22.41190 113.82692 18935 ft 416 kts 138°
2026-05-06 12:20 22.39127 113.84874 18449 ft 412 kts 138°
2026-05-06 12:21 22.37112 113.87007 17822 ft 397 kts 138°
2026-05-06 12:21 22.35177 113.89057 17282 ft 381 kts 138°
2026-05-06 12:21 22.33315 113.91027 16761 ft 368 kts 138°
2026-05-06 12:21 22.31510 113.92934 16240 ft 356 kts 138°
2026-05-06 12:22 22.29763 113.94778 15745 ft 346 kts 138°
2026-05-06 12:22 22.28064 113.96571 15253 ft 336 kts 138°
2026-05-06 12:22 22.26409 113.98316 14798 ft 329 kts 138°
2026-05-06 12:22 22.24789 114.00024 14428 ft 321 kts 137°
2026-05-06 12:23 22.23223 114.01677 14213 ft 309 kts 137°
2026-05-06 12:23 22.21731 114.03257 14088 ft 299 kts 135°
2026-05-06 12:23 22.20515 114.05055 13931 ft 293 kts 119°
2026-05-06 12:23 22.19650 114.07021 13767 ft 286 kts 114°
2026-05-06 12:24 22.18846 114.08980 13480 ft 284 kts 114°
2026-05-06 12:24 22.18022 114.10914 13155 ft 282 kts 115°
2026-05-06 12:24 22.17172 114.12820 12860 ft 280 kts 116°
2026-05-06 12:24 22.16314 114.14696 12573 ft 277 kts 117°
2026-05-06 12:25 22.15473 114.16574 12254 ft 276 kts 110°
2026-05-06 12:25 22.15240 114.18604 11893 ft 274 kts 78°
2026-05-06 12:25 22.15962 114.20461 11564 ft 267 kts 47°
2026-05-06 12:25 22.17370 114.21690 11227 ft 259 kts 19°
2026-05-06 12:26 22.19092 114.22076 10863 ft 251 kts 352°
2026-05-06 12:26 22.20720 114.21622 10534 ft 243 kts 327°
2026-05-06 12:26 22.21994 114.20477 10197 ft 238 kts 303°
2026-05-06 12:26 22.22692 114.18882 9879 ft 234 kts 280°
2026-05-06 12:27 22.22761 114.17134 9544 ft 233 kts 267°
2026-05-06 12:27 22.22665 114.15392 9244 ft 231 kts 266°
2026-05-06 12:27 22.22581 114.13659 8992 ft 228 kts 267°
2026-05-06 12:27 22.22509 114.11975 8823 ft 221 kts 267°
2026-05-06 12:28 22.22439 114.10353 8666 ft 212 kts 267°
2026-05-06 12:28 22.22372 114.08791 8450 ft 205 kts 267°
2026-05-06 12:28 22.22307 114.07265 8188 ft 201 kts 267°
2026-05-06 12:28 22.22242 114.05773 7940 ft 197 kts 267°
2026-05-06 12:29 22.22178 114.04305 7692 ft 193 kts 266°
2026-05-06 12:29 22.22115 114.02866 7454 ft 190 kts 266°
2026-05-06 12:29 22.22052 114.01452 7202 ft 187 kts 266°
2026-05-06 12:29 22.21989 114.00051 6966 ft 187 kts 266°
2026-05-06 12:30 22.21927 113.98652 6733 ft 186 kts 266°
2026-05-06 12:30 22.21865 113.97269 6534 ft 186 kts 266°
2026-05-06 12:30 22.21802 113.95872 6334 ft 186 kts 266°
2026-05-06 12:30 22.21741 113.94478 6111 ft 185 kts 266°
2026-05-06 12:31 22.21682 113.93086 5906 ft 185 kts 269°
2026-05-06 12:31 22.22004 113.91744 5732 ft 189 kts 299°
2026-05-06 12:31 22.22959 113.90763 5549 ft 194 kts 331°
2026-05-06 12:31 22.24271 113.90446 5389 ft 196 kts 356°
2026-05-06 12:32 22.25638 113.90476 5223 ft 197 kts
2026-05-06 12:32 22.27011 113.90548 5045 ft 197 kts
2026-05-06 12:32 22.28380 113.90645 4851 ft 197 kts 10°
2026-05-06 12:32 22.29643 113.91192 4664 ft 197 kts 35°
2026-05-06 12:33 22.30664 113.92124 4496 ft 185 kts 44°
2026-05-06 12:33 22.31489 113.93138 4488 ft 177 kts 64°
2026-05-06 12:33 22.31814 113.94386 4335 ft 169 kts 85°
2026-05-06 12:33 22.31894 113.95614 4105 ft 164 kts 89°
2026-05-06 12:34 22.31946 113.96847 3877 ft 163 kts 90°
2026-05-06 12:34 22.32001 113.98063 3672 ft 161 kts 89°
2026-05-06 12:34 22.32063 113.99274 3448 ft 160 kts 88°
2026-05-06 12:34 22.32136 114.00476 3242 ft 160 kts 88°
2026-05-06 12:35 22.32212 114.01676 3024 ft 159 kts 88°
2026-05-06 12:35 22.32291 114.02867 2814 ft 158 kts 89°
2026-05-06 12:35 22.32366 114.04040 2612 ft 158 kts 88°
2026-05-06 12:35 22.32442 114.05225 2401 ft 158 kts 88°
2026-05-06 12:36 22.32520 114.06407 2198 ft 157 kts 88°
2026-05-06 12:36 22.32595 114.07586 1988 ft 157 kts 87°
2026-05-06 12:36 22.32667 114.08762 1786 ft 156 kts 86°
2026-05-06 12:36 22.32745 114.09931 1583 ft 156 kts 86°
2026-05-06 12:37 22.32821 114.11100 1393 ft 155 kts 86°
2026-05-06 12:37 22.32901 114.12263 1204 ft 154 kts 86°
2026-05-06 12:37 22.32979 114.13422 1147 ft 154 kts 86°
2026-05-06 12:37 22.33055 114.14583 1112 ft 155 kts 86°
2026-05-06 12:38 22.33129 114.15742 924 ft 154 kts 86°
2026-05-06 12:38 22.33200 114.16901 675 ft 154 kts 86°
2026-05-06 12:38 22.33150 114.18031 446 ft 153 kts 101°
2026-05-06 12:38 22.32693 114.19043 229 ft 151 kts 128°
2026-05-06 12:39 22.31992 114.19854 46 ft 142 kts 131°
2026-05-06 12:39 22.31383 114.20538 41 ft 100 kts 134°
2026-05-06 12:39 22.31024 114.20940 40 ft 50 kts 134°
2026-05-06 12:39 22.30874 114.21120 40 ft 27 kts 122°
2026-05-06 12:40 22.30832 114.21230 40 ft 13 kts 88°
2026-05-06 12:40 22.30857 114.21265 40 ft 4 kts 353°
2026-05-06 12:40 22.30910 114.21224 40 ft 14 kts 315°
2026-05-06 12:40 22.31000 114.21119 40 ft 24 kts 314°
2026-05-06 12:41 22.31121 114.20983 40 ft 26 kts 314°
2026-05-06 12:41 22.31255 114.20834 40 ft 29 kts 314°
2026-05-06 12:41 22.31399 114.20673 40 ft 31 kts 314°
2026-05-06 12:41 22.31531 114.20525 40 ft 24 kts 314°
2026-05-06 12:42 22.31656 114.20385 40 ft 27 kts 314°
2026-05-06 12:42 22.31793 114.20233 40 ft 29 kts 314°
2026-05-06 12:42 22.31940 114.20068 40 ft 31 kts 314°
2026-05-06 12:42 22.32077 114.19915 40 ft 29 kts 314°
2026-05-06 12:43 22.32221 114.19754 41 ft 30 kts 314°
2026-05-06 12:43 22.32369 114.19597 41 ft 29 kts 317°
2026-05-06 12:43 22.32476 114.19492 41 ft 16 kts 318°
2026-05-06 12:43 22.32548 114.19423 40 ft 12 kts 324°
2026-05-06 12:44 22.32622 114.19436 41 ft 12 kts 37°
2026-05-06 12:44 22.32685 114.19498 41 ft 13 kts 43°
2026-05-06 12:44 22.32745 114.19559 41 ft 7 kts 43°
2026-05-06 12:44 22.32783 114.19590 41 ft 6 kts
2026-05-06 12:45 22.32818 114.19567 41 ft 5 kts 316°
2026-05-06 12:45 22.32834 114.19549 41 ft 3 kts 314°
2026-05-06 12:45 22.32840 114.19543 41 ft 0 kts 314°